Date String (YYYY-MM-DD hh:mm:ss) UTC,Instrument flags,Ambient pressure (hPa),Sample flow (lpm),Bypass flow (lpm),Sample temperature (°C),Ambient temperature (°C),ASC tube jacket temperature (°C),LED temperature (°C),Box temperature (°C),Sample RH (%),Span deviation,Mass concentration (μg/m³),Mass concentration (μg/m³),Mass concentration (μg/m³)
DateTimeUTC,F1_M11,P_M11,Q1_M11,Q2_M11,T1_M11,T2_M11,T3_M11,T4_M11,T5_M11,U1_M11,ZSPAN_M11,X0_M11,X2_M11,X1_M11
2022-05-05 01:00:00,,0825.2,4.99,0.00,25.1,24.5,00.0,34.0,26.9,24.2,0000.0,0005.06,0002.79,0002.11
2022-05-05 01:01:00,,0825.2,5.01,0.00,25.1,24.5,00.0,34.0,26.9,24.2,0000.0,0005.03,0002.76,0002.07
2022-05-05 01:02:00,,0825.2,4.99,0.00,25.1,24.5,00.0,34.0,27.0,24.6,0000.0,0004.91,0002.75,0002.04
2022-05-05 01:03:00,,0825.2,4.99,0.00,25.1,24.6,00.0,34.0,27.0,24.5,0000.0,0004.93,0002.75,0002.01
2022-05-05 01:04:00,,0825.2,5.01,0.00,25.1,24.6,00.0,34.0,27.0,24.4,0000.0,0004.81,0002.69,0001.98
2022-05-05 01:05:00,,0825.2,5.00,0.00,25.1,24.6,00.0,34.0,27.0,24.1,0000.0,0004.77,0002.67,0001.96
2022-05-05 01:06:00,,0825.2,4.99,0.00,25.2,24.6,00.0,34.0,27.1,24.2,0000.0,0004.90,0002.70,0001.95
2022-05-05 01:07:00,,0825.1,5.00,0.00,25.2,24.6,00.0,34.0,27.1,24.0,0000.0,0005.20,0002.75,0001.94
2022-05-05 01:08:00,,0825.1,5.00,0.00,25.2,24.6,00.0,34.0,27.1,24.0,0000.0,0005.15,0002.72,0001.92
2022-05-05 01:09:00,,0825.1,4.99,0.00,25.2,24.6,00.0,34.0,27.1,24.2,0000.0,0005.12,0002.71,0001.92
2022-05-05 01:10:00,,0825.1,5.01,0.00,25.2,24.7,00.0,34.1,27.1,23.9,0000.0,0004.88,0002.65,0001.88
2022-05-05 01:11:00,,0825.1,5.00,0.00,25.2,24.7,00.0,34.1,27.2,23.8,0000.0,0004.45,0002.59,0001.85
2022-05-05 01:12:00,,0825.1,5.00,0.00,25.2,24.7,00.0,34.1,27.2,23.7,0000.0,0004.32,0002.57,0001.84
2022-05-05 01:13:00,,0825.1,5.02,0.00,25.3,24.7,00.0,34.1,27.2,23.6,0000.0,0004.41,0002.59,0001.85
2022-05-05 01:14:00,,0825.1,4.99,0.00,25.3,24.8,00.0,34.1,27.2,23.6,0000.0,0004.41,0002.58,0001.85
2022-05-05 01:15:00,,0825.1,5.00,0.00,25.3,24.8,00.0,34.1,27.3,23.5,0000.0,0004.44,0002.60,0001.84
2022-05-05 01:16:00,,0825.1,5.01,0.00,25.3,24.8,00.0,34.1,27.3,23.5,0000.0,0004.38,0002.58,0001.83
2022-05-05 01:17:00,,0825.1,5.00,0.00,25.4,24.8,00.0,34.2,27.3,23.5,0000.0,0004.28,0002.54,0001.83
2022-05-05 01:18:00,,0825.1,5.01,0.00,25.4,24.8,00.0,34.2,27.3,23.5,0000.0,0004.24,0002.51,0001.82
2022-05-05 01:19:00,,0825.1,4.99,0.00,25.4,24.9,00.0,34.2,27.4,23.5,0000.0,0004.14,0002.48,0001.81
2022-05-05 01:20:00,,0825.0,5.00,0.00,25.4,24.9,00.0,34.2,27.4,23.4,0000.0,0004.01,0002.43,0001.81
2022-05-05 01:21:00,,0825.1,5.00,0.00,25.5,24.9,00.0,34.2,27.4,23.4,0000.0,0003.93,0002.41,0001.80
2022-05-05 01:22:00,,0825.1,5.00,0.00,25.5,24.9,00.0,34.3,27.4,23.3,0000.0,0003.88,0002.40,0001.81
2022-05-05 01:23:00,,0825.1,5.02,0.00,25.5,24.9,00.0,34.3,27.4,23.3,0000.0,0003.91,0002.41,0001.83
2022-05-05 01:24:00,,0825.0,5.00,0.00,25.5,24.9,00.0,34.3,27.5,23.3,0000.0,0003.93,0002.40,0001.82
2022-05-05 01:25:00,,0825.1,4.99,0.00,25.5,24.9,00.0,34.3,27.5,23.3,0000.0,0003.87,0002.39,0001.82
2022-05-05 01:26:00,,0825.1,5.01,0.00,25.6,25.0,00.0,34.3,27.5,23.3,0000.0,0003.77,0002.37,0001.84
2022-05-05 01:27:00,,0825.1,4.99,0.00,25.6,25.0,00.0,34.4,27.5,23.3,0000.0,0003.86,0002.42,0001.85
2022-05-05 01:28:00,,0825.1,5.00,0.00,25.6,25.0,00.0,34.4,27.5,23.3,0000.0,0004.05,0002.49,0001.85
2022-05-05 01:29:00,,0825.1,5.01,0.00,25.6,25.0,00.0,34.4,27.5,23.3,0000.0,0003.96,0002.49,0001.85
2022-05-05 01:30:00,,0825.1,4.99,0.00,25.6,25.0,00.0,34.4,27.5,23.3,0000.0,0004.00,0002.51,0001.85
2022-05-05 01:31:00,,0825.1,5.01,0.00,25.6,25.0,00.0,34.4,27.6,23.3,0000.0,0004.10,0002.55,0001.86
2022-05-05 01:32:00,,0825.1,4.99,0.00,25.6,25.0,00.0,34.4,27.6,23.3,0000.0,0004.11,0002.56,0001.87
2022-05-05 01:33:00,,0825.2,5.00,0.00,25.7,25.0,00.0,34.4,27.6,23.3,0000.0,0004.13,0002.56,0001.87
2022-05-05 01:34:00,,0825.1,4.99,0.00,25.7,25.1,00.0,34.5,27.6,23.2,0000.0,0004.10,0002.55,0001.87
2022-05-05 01:35:00,,0825.2,5.01,0.00,25.7,25.1,00.0,34.5,27.6,23.2,0000.0,0004.00,0002.56,0001.88
2022-05-05 01:36:00,,0825.2,4.99,0.00,25.7,25.1,00.0,34.5,27.6,23.1,0000.0,0004.03,0002.56,0001.89
2022-05-05 01:37:00,,0825.1,5.01,0.00,25.7,25.1,00.0,34.5,27.7,23.0,0000.0,0004.01,0002.54,0001.89
2022-05-05 01:38:00,,0825.2,4.99,0.00,25.7,25.1,00.0,34.5,27.7,23.0,0000.0,0004.17,0002.58,0001.89
2022-05-05 01:39:00,,0825.2,5.00,0.00,25.7,25.1,00.0,34.5,27.7,23.0,0000.0,0004.00,0002.51,0001.89
2022-05-05 01:40:00,,0825.2,4.99,0.00,25.8,25.1,00.0,34.5,27.7,23.0,0000.0,0003.96,0002.51,0001.90
2022-05-05 01:41:00,,0825.2,5.01,0.00,25.8,25.1,00.0,34.6,27.7,23.0,0000.0,0004.00,0002.55,0001.92
2022-05-05 01:42:00,,0825.2,5.00,0.00,25.8,25.1,00.0,34.6,27.7,23.0,0000.0,0003.90,0002.53,0001.92
2022-05-05 01:43:00,,0825.2,5.01,0.00,25.8,25.1,00.0,34.6,27.7,23.0,0000.0,0004.18,0002.60,0001.93
2022-05-05 01:44:00,,0825.2,4.99,0.00,25.8,25.1,00.0,34.6,27.7,23.0,0000.0,0004.41,0002.65,0001.95
2022-05-05 01:45:00,,0825.2,5.01,0.00,25.8,25.2,00.0,34.6,27.7,23.0,0000.0,0004.42,0002.66,0001.97
2022-05-05 01:46:00,,0825.2,5.00,0.00,25.8,25.2,00.0,34.6,27.7,22.9,0000.0,0004.52,0002.67,0001.98
2022-05-05 01:47:00,,0825.2,5.00,0.00,25.9,25.2,00.0,34.6,27.8,22.9,0000.0,0004.53,0002.68,0001.99
2022-05-05 01:48:00,,0825.2,4.99,0.00,25.9,25.2,00.0,34.7,27.8,22.9,0000.0,0004.45,0002.68,0002.00
2022-05-05 01:49:00,,0825.2,5.01,0.00,25.9,25.2,00.0,34.7,27.8,22.9,0000.0,0004.18,0002.62,0002.02
2022-05-05 01:50:00,,0825.3,4.99,0.00,25.9,25.2,00.0,34.7,27.8,23.0,0000.0,0004.13,0002.63,0002.05
2022-05-05 01:51:00,,0825.2,4.99,0.00,25.9,25.2,00.0,34.7,27.8,23.0,0000.0,0004.19,0002.68,0002.07
2022-05-05 01:52:00,,0825.3,5.01,0.00,25.9,25.2,00.0,34.7,27.8,23.0,0000.0,0004.37,0002.70,0002.09
2022-05-05 01:53:00,,0825.3,4.99,0.00,25.9,25.1,00.0,34.7,27.8,22.9,0000.0,0004.65,0002.74,0002.11
2022-05-05 01:54:00,,0825.3,5.01,0.00,25.9,25.1,00.0,34.7,27.8,23.0,0000.0,0004.59,0002.75,0002.12
2022-05-05 01:55:00,,0825.3,4.99,0.00,25.9,25.1,00.0,34.7,27.8,23.1,0000.0,0004.47,0002.76,0002.14
2022-05-05 01:56:00,,0825.3,5.01,0.00,25.9,25.1,00.0,34.8,27.8,23.2,0000.0,0004.57,0002.80,0002.17
2022-05-05 01:57:00,,0825.3,5.01,0.00,25.9,25.1,00.0,34.8,27.8,23.2,0000.0,0004.53,0002.82,0002.20
2022-05-05 01:58:00,,0825.3,4.99,0.00,25.9,25.1,00.0,34.8,27.8,23.2,0000.0,0004.40,0002.81,0002.24
2022-05-05 01:59:00,,0825.4,4.99,0.00,25.9,25.1,00.0,34.8,27.8,23.2,0000.0,0004.38,0002.82,0002.26
